Theta_e
347 342 340 332 316 316 309 311 315 315 317 320 325 320 320 322 314 312 337 338 341 341 350 351 352 351 351 351 350 350 350 350 349 348 347 346 346 346 346 347 347 347 347 347 346 345 344 343 342
340 335 334 326 313 307 308 312 312 316 317 320 320 322 322 321 330 330 332 343 344 347 352 352 353 352 351 351 351 350 350 350 350 349 349 349 348 348 347 347 346 347 347 347 347 347 347 346 345
337 336 325 318 313 308 307 311 312 316 319 318 316 322 323 323 330 334 342 345 346 347 349 351 354 354 353 353 352 351 351 351 351 351 351 351 349 349 349 349 349 348 347 347 348 348 348 347 347
333 329 323 314 310 313 313 315 317 316 319 319 319 318 327 333 333 338 342 343 342 344 347 351 355 355 355 354 354 353 352 352 352 352 351 350 348 350 349 346 345 345 347 348 349 349 350 349 349
327 324 314 311 312 315 317 318 319 316 316 319 320 319 323 332 338 338 340 342 343 345 348 348 351 355 355 356 355 354 353 353 352 352 350 349 348 346 346 345 344 344 345 345 346 348 350 352 351
322 322 312 308 311 315 318 320 318 316 318 318 319 321 325 334 340 340 344 343 345 345 347 348 349 349 353 357 356 355 353 352 352 351 350 349 348 346 345 345 345 344 344 344 345 346 349 349 351
319 319 311 312 312 314 317 321 318 320 320 321 325 321 327 333 341 344 341 344 342 342 343 346 348 351 349 353 355 354 354 353 350 348 346 345 344 344 344 344 345 345 345 345 346 348 347 346 346
319 319 312 313 311 311 318 321 326 323 321 329 328 320 321 331 335 340 342 339 337 336 338 339 342 345 348 349 350 351 350 347 345 345 343 341 341 341 341 341 341 342 344 344 345 345 346 347 346
318 316 311 311 313 314 320 321 326 328 324 325 327 327 330 333 338 340 333 333 333 332 334 337 338 340 343 344 346 344 343 342 341 340 339 338 338 336 335 335 336 338 340 341 341 341 343 345 342
313 312 312 316 318 319 322 323 323 321 322 322 326 332 335 338 336 329 329 327 328 327 327 331 335 336 340 339 341 340 340 340 337 334 333 330 330 328 327 327 329 331 334 336 336 338 340 340 343
318 312 317 318 324 324 322 322 324 321 319 325 324 330 333 329 327 325 324 324 323 323 323 326 330 335 338 339 336 334 334 333 330 329 329 328 325 324 323 322 323 326 328 331 333 334 335 336 338
315 318 321 323 325 324 321 322 321 323 323 329 329 332 333 329 326 323 321 322 321 320 321 323 328 331 336 337 333 330 327 326 324 325 326 324 322 322 322 321 322 323 323 326 329 329 334 335 336
320 321 323 324 324 323 323 320 320 322 328 329 332 332 331 328 324 322 321 320 321 319 320 321 328 330 334 333 329 327 325 324 325 324 324 323 321 321 321 321 321 321 322 321 322 323 327 329 329
323 323 323 324 322 322 317 316 319 325 329 328 330 331 332 330 323 321 320 319 321 320 319 321 325 328 329 329 329 326 325 325 324 323 323 324 322 322 321 320 320 321 321 321 321 321 322 323 324
325 319 321 322 321 319 319 315 317 326 327 327 329 332 332 328 322 321 321 320 321 320 321 321 324 325 326 326 326 326 326 325 323 322 325 324 324 323 322 321 321 321 322 322 322 320 320 320 320
316 316 312 317 320 320 318 308 317 324 325 325 329 330 330 328 323 322 322 322 323 320 320 323 322 323 324 324 324 323 325 324 323 323 323 324 323 324 323 321 320 321 320 320 320 321 319 318 319
311 308 309 313 320 320 317 311 319 323 320 324 328 330 329 327 325 324 322 322 322 321 320 320 323 322 322 323 323 323 324 322 323 323 323 324 323 322 321 320 320 321 319 319 319 319 320 318 318
308 306 310 310 316 318 315 313 318 319 319 322 326 331 329 326 324 324 324 323 323 322 321 320 319 321 323 323 323 322 322 322 322 321 322 323 321 321 321 319 320 320 318 318 319 319 320 319 318
308 310 310 313 316 316 316 315 316 321 321 323 324 330 329 328 328 326 325 324 323 323 322 321 318 321 321 319 318 318 316 319 320 321 323 322 321 320 320 318 319 319 318 319 319 317 317 316 318
312 312 310 312 315 316 314 314 319 321 322 323 323 324 329 329 328 326 325 325 322 322 321 320 318 319 319 318 320 319 319 319 320 321 322 321 321 320 319 319 318 319 317 318 318 317 315 315 317
312 311 310 310 314 315 313 311 314 318 321 323 325 325 327 330 328 327 325 324 323 321 319 319 318 319 320 320 320 321 321 321 319 319 318 319 320 319 319 319 319 319 317 315 316 316 314 310 315
308 312 313 311 310 306 312 303 310 315 316 318 323 322 327 330 331 330 327 324 323 322 322 319 317 318 318 321 320 319 316 315 317 318 318 319 320 319 318 318 318 318 316 316 315 316 315 312 307
310 316 313 310 309 309 308 305 307 312 312 316 320 322 326 331 331 330 328 326 324 322 321 321 317 318 318 319 320 318 318 318 318 318 319 320 319 319 317 316 317 317 316 316 316 315 313 310 309
315 312 310 309 308 302 305 306 308 310 313 316 320 323 325 328 331 331 330 326 324 322 321 320 317 318 318 319 319 319 319 319 317 318 317 316 317 317 317 317 317 317 316 315 315 315 313 310 311
313 311 303 301 301 301 308 305 309 314 316 318 320 322 324 327 328 329 326 323 324 321 320 319 318 317 317 317 319 319 319 320 319 318 316 316 315 315 316 317 317 315 315 315 315 315 314 313 309
312 309 303 295 297 300 307 304 311 316 319 320 321 325 325 327 325 327 324 323 323 322 320 319 318 317 317 317 318 319 320 320 319 319 318 315 315 315 318 316 316 317 316 315 315 313 313 313 309
310 305 309 304 304 302 305 309 315 316 317 319 320 323 324 324 323 324 321 323 324 323 321 319 319 318 317 317 320 319 320 321 320 320 320 317 318 316 317 316 316 316 315 315 315 313 313 313 313
311 309 304 306 297 295 301 304 306 313 316 318 318 319 323 323 321 319 320 322 324 324 322 320 319 318 318 317 319 319 319 320 321 320 319 319 319 318 317 315 315 314 315 315 315 313 314 313 313
308 307 306 307 306 299 297 301 316 317 319 319 319 320 321 321 320 319 320 322 324 323 320 319 318 318 318 317 318 319 319 319 320 320 319 319 319 319 316 315 314 314 314 315 314 313 313 313 313
310 308 310 304 301 305 304 304 315 318 319 321 321 319 320 321 320 320 320 320 321 321 319 317 318 318 318 319 318 318 319 319 319 320 320 320 319 319 316 315 314 314 314 315 314 313 312 311 311
Wind_Speed
14 7 2 3 2 5 6 8 6 7 5 5 8 9 12 9 6 6 4 6 4 9 6 5 3 2 1 1 1 2 3 3 2 3 3 3 4 6 7 9 9 10 10 10 9 8 9 10 10
11 5 2 0 4 8 7 10 14 14 12 11 14 14 14 10 7 4 3 9 8 8 6 3 1 2 2 2 1 0 1 1 2 2 3 4 5 6 7 8 9 10 10 11 10 9 9 9 11
7 2 2 4 3 6 6 10 10 6 8 7 4 9 5 8 8 7 8 7 8 7 5 5 5 5 5 4 3 4 4 5 6 7 8 9 9 9 9 10 10 11 11 12 11 11 9 9 9
2 1 3 6 9 5 4 6 7 7 8 8 6 10 8 12 4 7 7 8 8 8 6 6 6 6 6 6 6 5 5 5 6 6 8 9 10 10 10 12 10 10 12 13 13 13 12 10 10
1 1 4 6 8 4 4 8 5 6 4 9 4 8 7 8 9 8 9 10 11 10 9 9 11 10 8 7 7 6 5 5 6 7 9 9 8 10 10 11 11 12 12 12 13 13 12 11 11
1 1 3 5 6 4 6 7 10 12 9 8 9 7 7 6 9 9 13 14 13 11 10 10 11 10 8 7 7 8 7 6 7 9 11 10 10 10 9 10 12 12 11 12 13 13 13 11 10
2 2 3 7 7 4 4 8 10 10 8 11 5 6 6 13 9 11 13 14 14 12 11 11 11 10 7 7 9 9 10 9 11 11 11 11 11 11 11 11 12 13 12 13 15 16 17 15 12
3 3 4 2 6 4 3 6 8 7 6 2 4 6 6 7 10 11 12 13 11 12 11 11 9 9 8 8 11 11 13 12 13 14 12 11 11 12 13 13 15 17 16 15 16 17 18 16 14
1 2 4 5 7 5 3 7 7 4 13 11 9 14 10 10 10 11 10 13 11 11 12 11 11 10 9 9 9 10 14 15 15 13 15 11 9 11 12 14 16 16 17 16 17 18 18 11 10
3 1 3 1 7 6 7 10 7 6 14 16 17 16 15 12 11 12 12 11 12 12 12 11 11 10 8 7 9 10 10 11 11 11 11 8 9 9 10 11 15 15 17 15 16 16 15 9 4
4 4 6 5 12 8 11 5 3 14 8 12 11 13 14 14 12 11 9 9 10 10 10 11 11 10 10 8 7 6 6 6 7 12 10 10 8 8 8 6 8 9 14 9 11 10 7 9 5
9 6 5 9 7 5 6 5 6 3 8 11 10 12 14 11 9 9 10 9 10 12 11 12 13 11 10 6 7 8 7 7 7 9 11 8 6 8 8 7 9 8 8 10 9 7 9 8 7
11 10 9 8 14 16 13 13 5 10 10 7 11 14 12 10 11 11 10 10 11 13 13 13 11 9 8 8 7 8 8 7 7 8 10 8 8 8 8 8 8 8 9 9 9 9 8 8 8
10 19 15 10 12 8 9 8 4 8 5 5 10 10 10 9 11 11 9 11 10 11 12 11 11 9 8 8 8 6 7 6 6 7 9 9 7 8 8 8 8 8 8 8 8 8 8 7 8
18 16 12 8 4 6 6 11 8 6 4 8 6 6 8 8 10 9 9 9 9 9 10 10 8 9 8 7 6 6 6 6 7 7 9 10 9 9 8 8 8 9 8 10 9 9 8 8 8
5 6 6 3 3 3 3 4 2 3 3 7 4 6 7 8 7 8 8 9 6 10 10 9 8 8 8 8 7 6 6 6 6 6 7 11 11 11 9 9 9 10 9 9 9 8 9 8 8
3 3 4 6 2 1 2 9 9 5 1 2 0 5 5 6 6 6 7 6 6 8 8 10 10 9 8 8 6 7 7 6 6 7 8 11 11 12 10 9 9 10 9 9 9 9 8 8 9
6 5 4 5 4 2 6 7 11 7 7 5 4 5 7 6 6 6 5 4 5 7 9 10 8 7 5 3 3 4 5 5 6 7 8 11 9 12 10 9 10 10 9 9 9 10 9 7 9
3 6 9 2 3 1 4 9 14 11 9 7 6 7 8 8 7 7 6 3 4 7 8 7 8 8 5 4 5 4 5 6 6 7 9 10 11 13 12 9 10 10 9 10 10 8 10 8 10
9 14 7 5 2 0 5 4 8 8 6 8 9 9 9 9 9 8 6 4 2 5 4 4 6 5 4 4 3 3 4 4 5 6 8 11 12 12 10 11 10 11 9 10 10 10 8 7 8
5 3 9 5 7 6 5 3 7 5 8 8 10 9 10 12 11 10 8 5 4 3 2 3 5 5 5 5 3 2 1 2 5 7 8 9 11 11 11 11 10 10 9 9 10 9 10 6 7
5 2 9 14 5 1 3 2 6 7 9 10 12 13 12 12 11 10 9 7 6 5 4 2 3 4 3 4 5 6 5 5 5 5 6 7 9 10 11 11 11 10 9 10 9 8 8 6 6
4 10 11 6 4 2 4 5 4 2 10 13 13 13 12 13 14 13 11 8 7 6 5 3 1 2 2 4 5 4 5 4 4 4 7 8 8 9 10 11 10 10 8 9 10 10 9 5 3
18 10 6 4 1 3 2 4 3 6 10 8 12 16 14 14 14 11 9 9 8 7 6 4 4 2 3 2 3 4 5 5 6 6 6 7 6 6 9 11 9 9 10 10 9 9 8 6 4
3 6 2 2 3 1 3 4 7 7 10 8 11 13 12 14 12 12 13 11 10 9 6 5 5 3 3 3 3 4 4 5 5 6 6 7 6 6 8 10 9 8 10 10 9 9 8 8 6
13 3 3 4 3 2 3 5 1 1 5 7 8 12 12 14 11 14 12 11 11 9 7 6 5 5 3 3 3 4 4 4 4 4 5 5 6 6 8 8 9 9 9 9 8 6 7 7 6
6 6 3 6 1 3 1 4 9 3 3 6 7 10 13 15 12 13 12 10 10 9 7 6 6 5 4 3 3 4 4 5 5 5 5 5 5 6 7 7 8 8 8 9 8 6 8 7 6
3 8 3 2 1 2 3 5 4 4 6 8 9 11 12 11 12 11 10 9 9 8 6 6 6 6 5 4 3 4 4 5 4 4 5 5 5 6 6 6 6 7 7 9 8 6 7 7 7
5 3 5 3 3 2 2 3 5 6 6 11 12 12 12 13 13 12 10 10 8 7 7 7 6 7 7 5 3 4 4 4 4 5 5 5 5 5 5 5 5 6 6 7 7 7 7 7 8
1 1 4 3 3 1 2 4 0 3 3 9 10 10 10 11 12 11 10 10 9 9 7 7 6 8 7 6 5 5 4 4 5 5 5 5 6 5 5 4 4 5 5 6 7 7 7 7 8
Wind_Direction
133 134 121 235 98 74 57 28 340 40 56 25 55 68 78 47 29 64 29 56 60 122 119 135 154 201 212 181 128 83 71 67 59 39 16 4 350 343 338 336 335 334 333 333 335 341 343 342 344
143 139 217 14 72 69 62 38 62 82 89 84 77 93 69 63 31 65 37 26 71 83 71 49 349 285 269 271 310 15 57 31 21 3 348 337 327 326 325 321 319 317 316 316 319 321 324 326 328
134 68 316 53 60 69 72 68 76 45 41 46 96 51 36 9 19 19 32 71 80 70 51 27 333 321 314 320 335 335 351 354 352 352 350 341 336 333 326 318 314 309 306 304 304 304 305 305 307
156 139 95 64 74 68 86 84 61 59 52 51 104 78 92 32 15 23 72 75 63 50 25 7 322 309 309 313 314 317 324 333 333 343 347 345 342 338 328 325 317 310 304 301 298 295 295 296 295
119 244 68 87 72 74 81 82 59 27 67 44 60 94 75 30 62 73 81 65 53 38 16 359 342 311 295 298 301 302 310 325 336 346 353 352 351 342 343 341 330 323 311 304 302 296 290 288 284
44 12 106 100 90 87 86 92 91 74 54 69 65 76 64 21 54 74 78 61 47 38 26 20 10 345 297 283 308 315 324 334 353 16 21 22 30 26 8 357 342 328 318 306 297 289 279 271 269
39 52 92 125 116 103 87 85 64 74 66 42 85 74 82 44 54 79 61 52 41 32 30 26 20 27 34 7 348 348 3 21 47 42 41 41 33 27 17 6 355 345 335 323 309 297 285 275 268
115 91 132 88 143 110 78 101 91 66 54 298 354 71 81 75 74 79 70 63 47 35 28 29 25 28 31 30 27 45 52 49 49 45 44 48 49 38 29 14 12 3 353 346 341 333 315 290 281
138 115 140 133 162 136 109 115 73 80 87 75 84 83 87 105 103 83 61 56 42 34 25 21 19 21 26 37 42 53 57 56 54 54 44 38 37 28 23 20 8 3 358 355 348 345 337 319 310
37 62 141 20 126 133 94 91 102 129 107 77 82 85 91 82 67 69 56 47 36 28 22 18 14 15 21 40 41 51 60 61 58 53 46 42 37 25 16 12 7 1 359 353 353 352 346 340 330
62 105 119 79 118 111 93 86 100 131 99 71 84 89 77 78 74 74 70 55 43 32 26 14 12 13 24 40 56 54 57 60 59 53 44 41 30 20 20 9 9 3 3 353 348 352 352 343 335
107 70 88 133 96 88 75 95 115 59 89 102 83 107 95 91 91 83 71 57 43 39 32 20 15 13 23 37 53 62 52 51 51 51 42 34 26 21 14 13 10 7 3 355 353 351 350 350 335
93 103 70 96 94 90 102 79 71 77 85 107 88 88 100 107 99 82 75 65 50 36 25 22 17 31 33 51 53 60 61 55 46 45 47 32 25 19 11 14 12 10 1 358 351 350 351 353 345
109 111 114 105 102 100 81 57 163 82 75 70 66 86 107 106 100 92 77 71 56 36 21 24 27 41 53 48 54 53 57 54 50 48 39 35 23 16 17 15 9 4 357 353 345 349 341 341 340
127 109 117 140 119 111 86 61 86 93 74 68 66 119 104 107 97 93 90 77 61 50 21 20 36 29 41 41 39 44 37 51 46 41 36 28 24 20 13 13 7 360 350 349 346 346 343 335 336
131 149 142 129 161 74 226 146 132 142 52 51 63 144 132 117 112 110 96 80 60 59 43 33 33 29 39 43 41 40 47 50 42 29 25 18 20 19 12 9 8 357 350 349 347 345 336 340 339
193 161 140 157 253 150 350 147 173 200 254 21 43 120 157 138 142 109 101 93 73 62 46 37 30 20 28 40 51 55 52 40 28 20 18 15 17 17 8 9 4 353 353 354 346 341 340 332 338
196 184 157 177 159 147 101 143 161 186 210 211 224 183 185 181 168 149 132 111 97 70 52 32 15 359 329 360 41 43 42 30 25 23 19 15 11 13 9 7 0 355 355 358 357 347 347 335 340
225 145 122 90 66 114 104 170 176 185 198 215 220 203 200 200 180 172 154 147 102 69 53 30 6 360 3 10 0 5 14 14 21 18 17 13 11 12 9 3 3 358 1 355 357 355 355 353 354
150 130 111 110 53 181 145 169 207 210 216 221 227 212 204 198 193 193 175 183 111 88 62 32 17 358 9 28 27 2 352 6 3 12 17 12 7 9 5 1 360 1 352 360 1 4 351 354 10
121 132 164 134 120 72 153 214 217 214 225 228 232 235 211 204 208 200 193 197 185 157 152 41 10 1 24 15 17 18 24 27 14 12 9 3 4 5 5 4 359 356 353 357 354 3 3 348 357
153 202 141 133 183 139 310 298 233 214 236 228 218 205 203 202 211 209 201 195 206 204 174 147 2 350 36 19 43 39 27 8 6 349 357 355 3 3 5 2 360 358 352 358 355 1 354 354 358
93 138 118 122 91 175 191 259 117 225 247 238 225 215 206 203 207 207 202 201 205 187 180 148 317 336 7 30 28 21 20 11 352 350 348 359 2 6 3 2 354 358 354 357 357 357 7 7 352
135 115 87 99 122 262 118 280 194 185 221 237 218 220 213 209 209 206 194 191 199 186 177 177 229 287 335 348 25 18 1 355 355 360 351 360 360 2 8 355 356 0 356 358 358 1 7 359 355
158 155 130 236 214 267 118 235 277 192 210 226 214 210 204 204 207 200 188 191 196 191 191 199 221 267 316 298 344 356 340 328 335 345 357 351 360 4 4 355 359 359 0 359 356 2 359 357 357
177 226 270 270 234 79 158 241 45 231 274 240 211 199 187 194 205 196 194 192 197 186 193 211 215 243 266 301 344 345 337 329 325 347 343 353 355 1 352 357 355 355 356 356 356 355 359 4 354
171 213 81 107 12 243 225 267 262 236 215 207 187 184 189 199 191 195 185 193 190 186 195 217 229 236 259 294 309 335 340 333 340 340 328 343 345 348 359 357 352 358 1 0 350 6 360 3 359
228 129 186 135 163 290 220 280 277 254 217 203 204 206 204 201 182 185 185 188 185 182 192 209 224 242 252 265 281 316 332 329 327 327 327 333 337 340 346 352 352 352 356 358 357 1 16 5 6
154 168 73 88 319 267 270 292 216 254 232 214 215 208 206 194 185 187 185 182 177 180 197 209 218 227 237 246 262 280 313 323 310 310 320 326 327 330 329 333 338 342 347 352 356 2 4 3 2
100 156 165 247 189 63 320 273 187 228 261 227 222 216 211 201 193 190 184 170 171 188 196 214 228 232 237 243 253 263 286 299 297 294 305 308 312 315 307 301 310 317 328 331 335 347 355 354 354